Regional Weather Roundup
Issued by NWS Northern Indiana

Home | Current Version | Previous Version | Text Only | Print | Product List | Glossary Off
Versions: 1 2 3 4 5 6 7 8 9 10 11 12 13 14 15 16 17 18 19 20 21 22 23 24 25 26 27 28 29 30 31 32 33 34 35 36 37 38 39 40 41 42 43 44 45 46 47 48 49 50

000
ASUS43 KIWX 142300
RWRIWX

KIWX WEATHER ROUNDUP
NATIONAL WEATHER SERVICE NORTHERN INDIANA
600 PM EST THU DEC 14 2017

NOTE: "FAIR" INDICATES FEW OR NO CLOUDS BELOW 12,000 FEET WITH NO
SIGNIFICANT WEATHER AND/OR OBSTRUCTIONS TO VISIBILITY.

* THESE STATIONS ARE NOT UNDER NWS QUALITY CONTROL. THEY ALSO MAY NOT
  REPORT WEATHER SUCH AS PRECIPITATION OR FOG.

INZ001>027-150000-
NORTHERN INDIANA

CITY           SKY/WX    TMP DP  RH WIND       PRES   REMARKS
GARY*          PTCLDY    25  14  63 W3        30.07S
MICHIGAN CITY* CLOUDY    23  19  86 S5        30.07R WCI  17
LAPORTE*       CLOUDY    22  14  72 CALM      30.06S
KNOX*          MOCLDY    23  16  74 SE7       30.07S WCI  15
SOUTH BEND     FLURRIES  22  14  71 S6        30.06R WCI  14
ELKHART*       CLOUDY    21  10  63 CALM      30.06R
GOSHEN         CLOUDY    20  10  65 CALM      30.06R
MONTICELLO*    PTCLDY    25  13  60 CALM      30.07R
WARSAW*        CLOUDY    23  10  58 CALM      30.07R
FORT WAYNE     MOCLDY    20  11  68 S5        30.08R WCI  13
PERU/GRISSOM   PTCLDY    25  14  62 CALM      30.06R

$$
INZ028>050-150000-
CENTRAL INDIANA

CITY           SKY/WX    TMP DP  RH WIND       PRES   REMARKS
LAFAYETTE      MOCLDY    28  14  55 CALM      30.07R
KOKOMO*        CLOUDY    25  15  66 CALM      30.08R
MUNCIE*        CLOUDY    26  12  55 CALM      30.07R
INDIANAPOLIS   MOCLDY    27  10  49 S6        30.07R WCI  20

$$
MIZ043>046-050>051-056>058-064>065-071>073-077>080-150000-
SOUTHWEST LOWER MICHIGAN

CITY           SKY/WX    TMP DP  RH WIND       PRES   REMARKS
BATTLE CREEK   CLOUDY    20  12  71 SW8       30.03R WCI  10
BENTON HARBOR  LGT SNOW  22  16  78 S6        30.05R WCI  14
COLDWATER*     CLOUDY    19  10  68 SW5       30.04S WCI  12
HILLSDALE*     CLOUDY    18   9  68 SW3       30.02R
HOLLAND        CLOUDY    22  17  81 S8        30.04R WCI  12
GRAND RAPIDS   LGT SNOW  20  17  88 S5        30.03R FOG     WCI  13
KALAMAZOO      CLOUDY    21  12  68 S7        30.04R HAZE    WCI  12
STURGIS*       CLOUDY    20  13  72 SW3       30.04S
THREE RIVERS*  CLOUDY    21  12  67 S6        30.06R WCI  14

$$
OHZ001>008-015>018-024>025-150000-
NORTHWEST OHIO

CITY           SKY/WX    TMP DP  RH WIND       PRES   REMARKS
DEFIANCE       CLOUDY    14   6  70 CALM      30.08R
FINDLAY        CLOUDY    15   3  59 W5        30.07R WCI   8
TOLEDO EXPRESS PTCLDY    12   5  73 SW7       30.07R WCI   1
TOLEDO METCALF PTCLDY    12   5  73 SW7       30.09R WCI   1
LIMA           CLOUDY    18  11  74 CALM      30.06R

$$
AND FOR LAKE MICHIGAN COASTAL AND OPEN LAKE BUOY OBSERVATIONS

STATION/POSITION TEMP    WIND        PRES    VSBY  WAVE
                 AIR SEA DIR/SP/G                  HT/PER
                 (F)     (DEG/KT/KT) (MB)    (MI)  (FT/S)
BURNS HARBOR      27     280/  4/  7 1018.6R
SAINT JOSEPH      22     170/  2/  7 1017.9

$$
&&



USA.gov is the U.S. government's official web portal to all federal, state and local government web resources and services.